CW1428 Weather Reports


time (UTC)temp
C
wind
direction
speed
KPH
gust
KPH
rain 1hr
cm
rain 24hr
cm
rain mn
cm
humidity
%
barometer
mb
20260505035535 7 190 0.0 3.2 0.00 0.20 0.20 69 1014.6
20260505035038 7 190 0.0 3.2 0.00 0.20 0.20 69 1014.5
20260505034546 7 190 0.0 3.2 0.00 0.20 0.20 69 1014.5
20260505034043 7 0 0.0 3.2 0.00 0.20 0.20 69 1014.6
20260505033539 7 0 0.0 3.2 0.00 0.20 0.20 70 1014.6
20260505033048 7 190 0.0 8.0 0.00 0.20 0.20 71 1014.5
20260505032541 8 190 1.6 8.0 0.00 0.20 0.20 70 1014.3
20260505032038 8 190 0.0 4.8 0.00 0.20 0.20 70 1014.2
20260505031549 8 190 0.0 1.6 0.00 0.20 0.20 68 1014.2
20260505031041 8 190 0.0 3.2 0.00 0.20 0.20 67 1014.0
20260505030538 8 0 0.0 3.2 0.00 0.20 0.20 68 1014.1
20260505030045 8 190 0.0 6.4 0.00 0.20 0.20 68 1014.0
20260505025538 8 0 0.0 6.4 0.00 0.20 0.20 67 1013.9
20260505025037 8 190 0.0 8.0 0.00 0.20 0.20 68 1014.0
20260505024551 8 190 1.6 8.0 0.00 0.20 0.20 67 1014.0
20260505024038 8 190 0.0 4.8 0.00 0.20 0.20 67 1013.9
20260505023538 8 190 1.6 4.8 0.00 0.20 0.20 65 1013.9
20260505023057 8 190 0.0 6.4 0.00 0.20 0.20 66 1013.7
20260505022536 8 0 0.0 6.4 0.00 0.20 0.20 66 1013.9
20260505022039 9 0 0.0 3.2 0.00 0.20 0.20 63 1013.9
20260505021551 9 190 0.0 3.2 0.00 0.20 0.20 64 1013.7
20260505021038 9 0 0.0 3.2 0.00 0.20 0.20 62 1013.7
20260505020538 10 0 0.0 3.2 0.00 0.20 0.20 64 1013.6
20260505020045 10 0 0.0 3.2 0.00 0.20 0.20 65 1013.6
20260505015540 10 0 0.0 6.4 0.00 0.20 0.20 63 1013.7
20260505015039 10 0 0.0 6.4 0.00 0.20 0.20 58 1013.6
20260505014547 10 190 1.6 6.4 0.00 0.20 0.20 59 1013.5
20260505014038 11 190 1.6 6.4 0.00 0.20 0.20 59 1013.5
20260505013538 11 190 1.6 11.3 0.00 0.20 0.20 57 1013.5
20260505013042 11 190 1.6 17.7 0.00 0.20 0.20 51 1013.4
20260505012538 11 190 8.0 17.7 0.00 0.20 0.20 50 1013.5
20260505012038 11 190 1.6 4.8 0.00 0.20 0.20 51 1013.5
20260505011550 11 190 0.0 3.2 0.00 0.20 0.20 56 1013.5
20260505011039 11 190 0.0 3.2 0.00 0.20 0.20 57 1013.4
20260505010535 11 0 0.0 3.2 0.00 0.20 0.20 57 1013.4
20260505010050 11 190 0.0 3.2 0.00 0.20 0.20 57 1013.4
20260505005539 11 190 0.0 4.8 0.00 0.20 0.20 58 1013.4
20260505005038 11 190 0.0 4.8 0.00 0.20 0.20 59 1013.4
20260505004548 11 190 1.6 4.8 0.00 0.20 0.20 58 1013.5
20260505004038 11 190 0.0 8.0 0.00 0.20 0.20 61 1013.5
20260505003538 11 190 1.6 11.3 0.00 0.20 0.20 57 1013.6
20260505003047 11 190 1.6 11.3 0.00 0.20 0.20 55 1013.5
20260505002541 11 190 1.6 6.4 0.00 0.20 0.20 54 1013.5
20260505002038 11 0 0.0 4.8 0.00 0.20 0.20 56 1013.5
20260505001551 11 190 1.6 8.0 0.00 0.20 0.20 55 1013.6
20260505001038 11 190 3.2 11.3 0.00 0.20 0.20 56 1013.6
20260505000538 11 190 3.2 11.3 0.00 0.20 0.20 56 1013.8
20260505000053 11 190 4.8 11.3 0.00 0.20 0.20 58 1013.8
20260504235538 11 190 3.2 9.7 0.00 0.20 0.20 58 1013.8
20260504235038 11 190 3.2 9.7 0.00 0.20 0.20 60 1014.0
20260504234602 11 190 3.2 9.7 0.00 0.20 0.20 57 1014.0
20260504234039 11 190 3.2 11.3 0.00 0.20 0.20 57 1013.9
20260504233541 11 190 3.2 17.7 0.00 0.20 0.20 58 1014.0
20260504233048 11 190 1.6 17.7 0.00 0.20 0.20 59 1014.2
20260504232539 11 190 4.8 12.9 0.00 0.20 0.20 58 1014.2
20260504232037 11 190 3.2 11.3 0.00 0.20 0.20 58 1014.1
20260504231558 11 190 3.2 14.5 0.00 0.20 0.20 61 1014.1
20260504231038 11 190 3.2 14.5 0.00 0.20 0.20 59 1014.2
20260504230539 11 190 3.2 14.5 0.00 0.20 0.20 58 1014.1
20260504230047 11 190 3.2 12.9 0.00 0.20 0.20 58 1014.1
20260504225539 11 190 3.2 16.1 0.00 0.20 0.20 60 1013.9
20260504225046 11 190 4.8 16.1 0.00 0.20 0.20 60 1014.0
20260504224551 11 190 4.8 16.1 0.00 0.20 0.20 59 1014.0
20260504224038 11 190 3.2 16.1 0.00 0.20 0.20 60 1014.3
20260504223538 11 190 4.8 19.3 0.00 0.20 0.20 62 1014.3
20260504223051 11 190 6.4 19.3 0.00 0.20 0.20 64 1014.3
20260504222538 11 190 6.4 17.7 0.00 0.20 0.20 62 1014.5
20260504222038 12 190 6.4 11.3 0.00 0.20 0.20 60 1014.5
20260504221558 11 190 3.2 14.5 0.00 0.20 0.20 59 1014.6
20260504221038 11 190 4.8 14.5 0.00 0.20 0.20 60 1014.6
20260504220539 11 190 4.8 12.9 0.00 0.20 0.20 60 1014.6
20260504220050 11 190 4.8 16.1 0.00 0.20 0.20 63 1014.7
20260504215538 11 190 4.8 16.1 0.00 0.20 0.20 62 1014.8
20260504215036 11 190 8.0 16.1 0.00 0.20 0.20 60 1014.8
20260504214545 11 190 6.4 19.3 0.00 0.20 0.20 61 1014.7
20260504214038 11 190 11.3 19.3 0.00 0.20 0.20 56 1014.7
20260504213538 11 190 11.3 17.7 0.00 0.20 0.20 55 1014.8
20260504213047 11 190 8.0 25.7 0.00 0.20 0.20 55 1014.9
20260504212539 11 190 9.7 27.4 0.00 0.20 0.20 54 1015.0
20260504212039 12 190 14.5 27.4 0.00 0.20 0.20 54 1015.2
20260504211550 12 190 8.0 17.7 0.00 0.20 0.20 55 1015.1
20260504211038 12 190 8.0 12.9 0.00 0.20 0.20 58 1015.0
20260504210538 12 0 4.8 8.0 0.00 0.20 0.20 59 1014.8
20260504205538 12 190 1.6 4.8 0.00 0.20 0.20 61 1014.7
20260504205041 11 190 1.6 4.8 0.00 0.20 0.20 63 1014.9
20260504204559 10 190 0.0 4.8 0.00 0.20 0.20 71 1015.0
20260504204038 10 190 1.6 4.8 0.00 0.20 0.20 70 1015.1
20260504203538 8 0 0.0 3.2 0.00 0.20 0.20 75 1015.3
20260504203051 8 190 0.0 9.7 0.00 0.20 0.20 74 1015.4
20260504202538 8 190 1.6 24.1 0.00 0.20 0.20 76 1015.4
20260504202039 8 190 8.0 27.4 0.00 0.20 0.20 77 1016.0
20260504201550 8 190 14.5 30.6 0.00 0.20 0.20 76 1016.1
20260504201038 8 190 16.1 30.6 0.00 0.20 0.20 75 1016.1
20260504200538 10 190 17.7 30.6 0.00 0.20 0.20 69 1016.5
20260504200046 11 190 11.3 25.7 0.00 0.20 0.20 61 1016.0
20260504195537 12 190 8.0 16.1 0.00 0.20 0.20 55 1015.6
20260504195037 13 190 3.2 12.9 0.00 0.20 0.20 54 1015.5
20260504194602 13 190 1.6 12.9 0.00 0.20 0.20 53 1015.3
20260504194037 13 190 4.8 14.5 0.00 0.20 0.20 53 1015.5
20260504193536 13 190 4.8 19.3 0.00 0.20 0.20 51 1015.5
20260504193049 13 190 6.4 19.3 0.00 0.20 0.20 52 1015.5
20260504192537 14 190 4.8 17.7 0.00 0.20 0.20 53 1015.5
20260504192038 13 190 6.4 17.7 0.00 0.20 0.20 55 1015.5
20260504191551 13 190 3.2 14.5 0.00 0.20 0.20 56 1015.6
20260504191038 12 190 4.8 14.5 0.00 0.20 0.20 57 1015.7
20260504190538 12 190 4.8 14.5 0.00 0.20 0.20 57 1015.9
20260504190108 12 190 6.4 14.5 0.00 0.20 0.20 57 1015.9
20260504185537 12 190 6.4 11.3 0.00 0.20 0.20 55 1016.0
20260504185037 13 190 4.8 11.3 0.00 0.20 0.20 58 1016.1
20260504184557 12 190 3.2 11.3 0.00 0.20 0.20 61 1016.2
20260504184038 11 190 3.2 16.1 0.00 0.20 0.20 64 1016.4
20260504183539 11 190 1.6 16.1 0.00 0.20 0.20 67 1016.4
20260504183047 10 190 3.2 17.7 0.00 0.20 0.20 71 1016.7
20260504182538 10 190 3.2 19.3 0.00 0.20 0.20 73 1016.9
20260504182038 10 190 6.4 24.1 0.00 0.20 0.20 65 1017.0
20260504181548 12 190 6.4 24.1 0.00 0.20 0.20 58 1017.0
20260504181037 12 190 4.8 11.3 0.00 0.20 0.20 53 1016.8
20260504180538 13 190 3.2 11.3 0.00 0.20 0.20 54 1016.9
20260504180114 13 190 6.4 11.3 0.00 0.20 0.20 53 1016.8
20260504175537 12 190 3.2 11.3 0.00 0.20 0.20 56 1016.9
20260504175038 12 190 3.2 9.7 0.00 0.20 0.20 57 1017.0
20260504174549 11 190 1.6 9.7 0.00 0.20 0.20 61 1017.1
20260504174040 11 190 3.2 8.0 0.00 0.20 0.20 64 1017.1
20260504173538 11 190 3.2 8.0 0.03 0.20 0.20 62 1017.2
20260504173058 11 190 1.6 6.4 0.03 0.20 0.20 64 1017.3
20260504172538 10 190 1.6 6.4 0.03 0.20 0.20 65 1017.4
20260504172037 10 190 1.6 6.4 0.05 0.20 0.20 67 1017.5
20260504171549 9 0 1.6 6.4 0.05 0.20 0.20 68 1017.6
20260504171039 9 0 0.0 6.4 0.05 0.20 0.20 71 1017.5
20260504170539 8 190 0.0 6.4 0.05 0.20 0.20 72 1017.7
20260504151038 8 0 0.0 4.8 0.00 0.15 0.15 77 1018.9
20260504150537 7 190 1.6 4.8 0.00 0.15 0.15 77 1019.2
20260504141038 5 190 0.0 1.6 0.00 0.15 0.15 80 1019.5
20260504140538 5 0 0.0 1.6 0.00 0.15 0.15 81 1019.5
20260504130540 3 190 0.0 0.0 0.05 0.15 0.15 87 1019.2
20260504120111 3 190 1.6 8.0 0.10 0.10 0.10 87 1019.7
20260504110538 3 0 0.0 1.6 0.00 0.00 0.00 67 1018.9
20260504100540 3 0 0.0 1.6 0.00 0.00 0.00 62 1018.8
20260504081548 3 190 0.0 1.6 0.00 0.00 0.00 60 1018.6
20260504081039 3 0 0.0 1.6 0.00 0.00 0.00 61 1018.7
20260504080538 3 190 0.0 0.0 0.00 0.00 0.00 62 1018.7
20260504050539 6 0 0.0 0.0 0.00 0.00 0.00 52 1018.7
20260504050112 6 0 0.0 0.0 0.00 0.00 0.00 51 1018.7
20260504045538 6 0 0.0 0.0 0.00 0.00 0.00 51 1018.7
20260504045042 6 0 0.0 0.0 0.00 0.00 0.00 49 1018.7
20260504044542 6 0 0.0 1.6 0.00 0.00 0.00 47 1018.6
20260504044038 7 190 0.0 1.6 0.00 0.00 0.00 46 1018.7
20260504043538 7 190 0.0 3.2 0.00 0.00 0.00 46 1018.7
20260504043057 7 0 0.0 3.2 0.00 0.00 0.00 45 1018.7
20260504042537 7 190 0.0 0.0 0.00 0.00 0.00 45 1018.9
20260504042037 7 0 0.0 0.0 0.00 0.00 0.00 45 1018.8
20260504041547 8 0 0.0 0.0 0.00 0.00 0.00 44 1018.7
20260504041038 8 0 0.0 0.0 0.00 0.00 0.00 44 1018.7
20260504040537 8 0 0.0 0.0 0.00 0.00 0.00 43 1018.7
20260504040053 8 0 0.0 0.0 0.00 0.00 0.00 43 1018.8